This demonstration page uses our WeatherBlox Daily Observations layout. Learn more.

Left ArrowRight Arrow

53.62937, 11.41316

Hourly Observations for November 2, 2022

Temp ( °F °C ) Dew Point ( °F °C ) Humidity (%) Winds ( mph kmh ) Pressure ( in mb ) Visibility ( mi km ) Precip ( " mm )
12:20 am 00:20 Clear 52 11 43 6 71 71 VRB 6 9 29.97 1015 6 10 0.00 0.00
12:50 am 00:50 Clear 50 10 43 6 76 76 SSW 6 9 29.97 1015 6 10 0.00 0.00
1:20 am 01:20 Clear 52 11 43 6 71 71 SSW 7 11 29.97 1015 6 10 0.00 0.00
1:50 am 01:50 Clear 52 11 43 6 71 71 VRB 6 9 29.97 1015 6 10 0.00 0.00
2:20 am 02:20 Mostly Clear 52 11 43 6 71 71 VRB 5 7 29.97 1015 6 10 0.00 0.00
2:50 am 02:50 Mostly Cloudy 52 11 43 6 71 71 VRB 5 7 29.97 1015 6 10 0.00 0.00
3:20 am 03:20 Partly Cloudy 52 11 43 6 71 71 SSW 6 9 29.94 1014 6 10 0.00 0.00
3:50 am 03:50 Mostly Cloudy 52 11 43 6 71 71 VRB 5 7 29.94 1014 6 10 0.00 0.00
4:20 am 04:20 Cloudy 52 11 43 6 71 71 S 6 9 29.94 1014 6 10 0.00 0.00
4:50 am 04:50 Mostly Cloudy 52 11 43 6 71 71 VRB 5 7 29.94 1014 6 10 0.00 0.00
5:20 am 05:20 Cloudy 50 10 45 7 82 82 S 6 9 29.94 1014 6 10 0.00 0.00
5:50 am 05:50 Cloudy 50 10 46 8 87 87 S 7 11 29.94 1014 6 10 0.00 0.00
6:20 am 06:20 Mostly Clear 50 10 46 8 87 87 S 6 9 29.94 1014 6 10 0.00 0.00
6:50 am 06:50 Mostly Clear 50 10 45 7 82 82 S 6 9 29.94 1014 6 10 0.00 0.00
7:20 am 07:20 Mostly Sunny 50 10 45 7 82 82 SSW 6 9 29.94 1014 6 10 0.00 0.00
7:50 am 07:50 Mostly Sunny 52 11 46 8 82 82 SSW 7 11 29.94 1014 6 10 0.00 0.00
8:20 am 08:20 Mostly Sunny 52 11 46 8 82 82 SSW 7 11 29.94 1014 6 10 0.00 0.00
8:50 am 08:50 Mostly Sunny 54 12 46 8 76 76 SSW 7 11 29.94 1014 6 10 0.00 0.00
9:20 am 09:20 Partly Cloudy 54 12 46 8 76 76 VRB 7 11 29.94 1014 6 10 0.00 0.00
9:50 am 09:50 Mostly Cloudy 55 13 46 8 72 72 VRB 7 11 29.94 1014 6 10 0.00 0.00
10:20 am 10:20 Mostly Cloudy 55 13 46 8 72 72 VRB 7 11 29.94 1014 6 10 0.00 0.00
10:50 am 10:50 Mostly Cloudy 55 13 46 8 72 72 VRB 10 17 29.97 1015 6 10 0.00 0.00
11:20 am 11:20 Partly Cloudy 55 13 46 8 72 72 WSW 10 17 29.97 1015 6 10 0.00 0.00
11:50 am 11:50 Mostly Cloudy 55 13 46 8 72 72 WSW 7 11 29.97 1015 6 10 0.00 0.00
12:20 pm 12:20 Partly Cloudy 54 12 45 7 71 71 VRB 10 17 29.97 1015 6 10 0.00 0.00
12:50 pm 12:50 Mostly Cloudy with Light Rain 54 12 46 8 76 76 WSW 12 19 29.97 1015 6 10 0.00 0.00
1:20 pm 13:20 Partly Cloudy with Showers Nearby 55 13 48 9 77 77 VRB 9 15 30.00 1016 6 10 0.00 0.00
1:50 pm 13:50 Mostly Cloudy with Showers Nearby 57 14 45 7 63 63 W 17 28 30.00 1016 6 10 0.00 0.00
2:20 pm 14:20 Mostly Cloudy with Showers Nearby 52 11 45 7 76 76 W 13 20 30.03 1017 6 10 0.00 0.00
2:50 pm 14:50 Mostly Cloudy with Rain 50 10 45 7 82 82 W 15 24 30.06 1018 4 6 0.00 0.00
3:20 pm 15:20 Cloudy with Showers 48 9 45 7 87 87 WNW 12 19 30.06 1018 6 10 0.00 0.00
3:50 pm 15:50 Partly Cloudy with Showers Nearby 48 9 45 7 87 87 W 8 13 30.06 1018 6 10 0.00 0.00
4:20 pm 16:20 Mostly Sunny 48 9 46 8 93 93 WSW 5 7 30.06 1018 6 10 0.00 0.00
4:50 pm 16:50 Mostly Clear 48 9 45 7 87 87 VRB 3 6 30.06 1018 6 10 0.00 0.00
5:20 pm 17:20 Mostly Clear 46 8 45 7 93 93 S 5 7 30.06 1018 6 10 0.00 0.00
5:50 pm 17:50 Mostly Clear 48 9 45 7 87 87 S 5 7 30.06 1018 6 10 0.00 0.00
6:20 pm 18:20 Mostly Clear 48 9 45 7 87 87 S 5 7 30.09 1019 6 10 0.00 0.00
6:50 pm 18:50 Mostly Clear 48 9 43 6 81 81 S 6 9 30.09 1019 6 10 0.00 0.00
7:20 pm 19:20 Mostly Clear 46 8 43 6 87 87 SSW 5 7 30.09 1019 6 10 0.00 0.00
7:50 pm 19:50 Mostly Clear 46 8 43 6 87 87 S 5 7 30.09 1019 6 10 0.00 0.00
8:20 pm 20:20 Mostly Clear 46 8 43 6 87 87 SSW 5 7 30.09 1019 6 10 0.00 0.00
8:50 pm 20:50 Mostly Clear 46 8 43 6 87 87 SSW 5 7 30.09 1019 6 10 0.00 0.00
9:20 pm 21:20 Clear 46 8 41 5 81 81 S 5 7 30.09 1019 6 10 0.00 0.00
9:50 pm 21:50 Clear 46 8 41 5 81 81 S 5 7 30.09 1019 6 10 0.00 0.00
10:20 pm 22:20 Clear 45 7 41 5 87 87 S 3 6 30.09 1019 6 10 0.00 0.00
10:50 pm 22:50 Clear 43 6 41 5 93 93 VRB 2 4 30.06 1018 6 10 0.00 0.00
11:20 pm 23:20 Clear 43 6 41 5 93 93 VRB 2 4 30.06 1018 6 10 0.00 0.00
11:50 pm 23:50 Clear 43 6 41 5 93 93 VRB 2 4 30.06 1018 6 10 0.00 0.00

Powered by AerisWeather